Weather in Kovel

Ukraine / Volyn Oblast     51°12′48″N   24°42′36″E
temp.,
°C
wind,
m/s
gust,
m/s
humid.,
%
clouds,
%
prec.,
mm/h
press.,
hPa
HPBL,
m
18 january, mon
mon1823:00−17nnw379598 0.0 1022205
02:00−18nnw379658 0.0 1022195
05:00−19nnw36971 0.0 1022156
08:00−19nnw35963 0.0 1023104
11:00−16nnw248917 0.0 1024287
14:00−14nw238233 0.0 1023388
17:00−15wnw228923 0.0 102321
20:00−16wnw228929 0.0 102320
19 january, tue
tue1923:00−17w228942 0.0 102320
02:00−17sw229323 0.0 102321
05:00−16s239476 0.0 102145
08:00−15s349473 0.0 102171
11:00−11s359064 0.0 1019207
14:00−7s469380 0.2 1017330
17:00−6sse359697 0.3 1016143
20:00−5ssw489695 0.6 1015245
20 january, wed
wed2023:00−5sw51093100 0.3 1014335
02:00−5s4994100 0.3 1013288
05:00−4s4996100 0.3 1011328
08:00−3s61096100 0.8 1010412
11:00−1s51097100 1.8 1010384
14:00+1sw511100100 2.6 1010308
17:00+1sw41296100 0.6 1010379
20:00+1sw51191100 0.6 1010342
21 january, thu
thu2123:00+1sw61487100 0.0 1010447
02:00+1sw6158882 0.0 1010431
05:00+2sw5168799 0.0 1010480
08:00+2sw51387100 0.0 1010409
11:00+2sw51393100 0.0 1010415
14:00+2ssw41110087 0.0 1010319
17:00+2s499353 0.0 1009186
20:00+2s6148729 0.0 1009311
22 january, fri
fri2223:00+2ssw6158874 0.0 1008386
02:00+2s6138770 0.0 1006337
05:00+2ssw6158868 0.0 1005403
08:00+2sw5138973 0.0 1005358
11:00+2ssw41198100 0.0 1006285
14:00+3sse41010092 0.0 1004262
17:00+3sse5139498 0.0 1002326
20:00+3s6159199 0.0 1001443